Weather History for Alturas, CA

Change the Weather History Date:

Monday, February 24, 2014

  Actual Average Record
Temperature  
Mean Temperature 45 °F 36 °F  
Max Temperature 64 °F 48 °F 67 °F (1995)
Min Temperature 25 °F 23 °F -4 °F (1933)
Degree Days  
Heating Degree Days 20 29  
Month to date heating degree days 687 753  
Since 1 July heating degree days 4672 4751  
Cooling Degree Days 0 0  
Month to date cooling degree days 0 0  
Year to date cooling degree days 0 0  
Moisture  
Dew Point 27 °F    
Average Humidity 59    
Maximum Humidity 88    
Minimum Humidity 30    
Precipitation  
Precipitation 0.00 in 0.06 in 0.82 in (1972)
Month to date precipitation 1.24 1.23  
Year to date precipitation 1.36 2.88  
Sea Level Pressure  
Sea Level Pressure 30.04 in    
Wind  
Wind Speed 2 mph (SSW)    
Max Wind Speed 9 mph    
Max Gust Speed 13 mph    
Visibility 9 miles    
Events      
T = Trace of Precipitation, MM = Missing Value Source: NWS Daily Summary

Daily Weather History Graph

Daily Weather History Graph

Search for Another Location

Airport:

Trip Planner

Search our weather history database for the weather conditions in past years. The results will help you decide how hot, cold, wet, or windy it might be!

Date:

Astronomy

Feb. 24, 2014 Rise Set
Actual Time 6:44 AM PST 5:47 PM PST
Civil Twilight 6:16 AM PST 6:15 PM PST
Nautical Twilight 5:44 AM PST 6:47 PM PST
Astronomical Twilight 5:12 AM PST 7:19 PM PST
Moon 2:50 AM PST (2/24) 12:51 PM PST (2/24)
Length of Visible Light 11h 58m
Length of Day
11h 02m
Waning Crescent, 27% of the Moon is Illuminated
Feb 24
Waning Crescent
Mar 1
New
Mar 8
First Quarter
Mar 16
Full
Mar 23
Last Quarter

Hourly Weather History & Observations

Time (PST) Temp. Windchill Dew Point Humidity Pressure Visibility Wind Dir Wind Speed Gust Speed Precip Events Conditions
12:55 AM 26.1 °F - 21.0 °F 81% 30.08 in 10.0 mi Calm Calm - N/A   Clear
1:55 AM 27.0 °F 21.6 °F 21.0 °F 78% 30.06 in 7.0 mi ESE 4.6 mph - N/A   Clear
2:55 AM 28.0 °F - 23.0 °F 81% 30.05 in 9.0 mi Calm Calm - N/A   Overcast
3:55 AM 26.1 °F - 21.0 °F 81% 30.06 in 10.0 mi Calm Calm - N/A   Clear
4:55 AM 26.1 °F - 21.9 °F 84% 30.06 in 8.0 mi Calm Calm - N/A   Clear
5:55 AM 26.1 °F - 23.0 °F 88% 30.09 in 10.0 mi Calm Calm - N/A   Clear
6:55 AM 25.0 °F - 21.0 °F 85% 30.11 in 10.0 mi Calm Calm - N/A   Clear
7:55 AM 33.1 °F - 25.0 °F 72% 30.10 in 10.0 mi Calm Calm - N/A   Overcast
8:55 AM 42.1 °F - 26.1 °F 53% 30.10 in 10.0 mi Calm Calm - N/A   Clear
9:55 AM 46.9 °F - 26.1 °F 44% 30.09 in 10.0 mi Calm Calm - N/A   Clear
10:55 AM 53.1 °F - 27.0 °F 37% 30.07 in 10.0 mi Calm Calm - N/A   Clear
11:55 AM 59.0 °F - 28.0 °F 31% 30.04 in 10.0 mi Calm Calm - N/A   Clear
12:55 PM 61.0 °F - 30.9 °F 32% 30.02 in 10.0 mi Variable 5.8 mph - N/A   Clear
1:55 PM 62.1 °F - 30.9 °F 31% 29.99 in 10.0 mi Variable 4.6 mph - N/A   Clear
2:55 PM 63.0 °F - 30.9 °F 30% 29.97 in 10.0 mi WNW 6.9 mph - N/A   Clear
3:55 PM 63.0 °F - 30.0 °F 29% 29.97 in 10.0 mi SW 5.8 mph - N/A   Clear
4:55 PM 62.1 °F - 30.0 °F 30% 29.97 in 10.0 mi West 3.5 mph - N/A   Clear
5:55 PM 54.0 °F - 28.9 °F 38% 30.00 in 10.0 mi West 5.8 mph - N/A   Clear
6:55 PM 51.1 °F - 30.0 °F 44% 30.02 in 10.0 mi Calm Calm - N/A   Clear
7:55 PM 43.0 °F - 30.9 °F 62% 30.02 in 10.0 mi Calm Calm - N/A   Clear
8:55 PM 37.0 °F - 28.9 °F 73% 30.03 in 10.0 mi Calm Calm - N/A   Clear
9:55 PM 35.1 °F 32.2 °F 28.9 °F 78% 30.04 in 10.0 mi South 3.5 mph - N/A   Clear
10:55 PM 34.0 °F 31.0 °F 28.0 °F 79% 30.04 in 5.0 mi ENE 3.5 mph - N/A   Haze
11:55 PM 33.1 °F 28.7 °F 28.0 °F 82% 30.03 in 7.0 mi East 4.6 mph - N/A   Clear